AIC24L VIDP-YSSY

Flight info

Callsign AIC24L
Flight time N/A
Altitude 35000
Route ITBAN7H ITBAN L759 PUT B579 VPL W531 VIH A464 VKL Y507 MAKNA Y511 TOPOR A464 ARAMA P501 ANITO B470 PKP L511 SBR M766 BLI M635 ATMAP A576 APOMA Y52 VELGI Y105 TARAL Y59 RIVET
Aircraft B789/H-SDE1E2E3FGHIJ2J3J4J5M1RWXY/LB1D1

Departure

Time N/A
Airport Indira Gandhi International Airport (VIDP)

Arrival

Time 2026-05-06 20:56
Airport Sydney Kingsford Smith International Airport (YSSY)
Time Latitude Longitude Altitude Speed Heading
2026-05-06 19:51 -30.95594 144.20857 39657 ft 557 kts 132°
2026-05-06 19:52 -30.97998 144.24397 39830 ft 557 kts 132°
2026-05-06 19:52 -31.00429 144.27979 40052 ft 557 kts 132°
2026-05-06 19:52 -31.02827 144.31516 40261 ft 556 kts 132°
2026-05-06 19:52 -31.05222 144.35052 40431 ft 556 kts 132°
2026-05-06 19:53 -31.07590 144.38551 40584 ft 555 kts 132°
2026-05-06 19:53 -31.09980 144.42085 40762 ft 555 kts 132°
2026-05-06 19:53 -31.12370 144.45624 40940 ft 555 kts 132°
2026-05-06 19:53 -31.14756 144.49159 41117 ft 554 kts 132°
2026-05-06 19:54 -31.17143 144.52698 41253 ft 555 kts 132°
2026-05-06 19:54 -31.19541 144.56256 41235 ft 558 kts 132°
2026-05-06 19:54 -31.24326 144.63374 41232 ft 555 kts 132°
2026-05-06 19:55 -31.29090 144.70464 41244 ft 554 kts 132°
2026-05-06 19:55 -31.33863 144.77586 41242 ft 554 kts 132°
2026-05-06 19:56 -31.38594 144.84656 41238 ft 556 kts 132°
2026-05-06 19:56 -31.43364 144.91799 41241 ft 558 kts 132°
2026-05-06 19:57 -31.48122 144.98939 41237 ft 554 kts 132°
2026-05-06 19:57 -31.52870 145.06072 41237 ft 555 kts 132°
2026-05-06 19:58 -31.57629 145.13238 41242 ft 557 kts 132°
2026-05-06 19:58 -31.62392 145.20424 41243 ft 557 kts 132°
2026-05-06 19:59 -31.67142 145.27602 41243 ft 556 kts 131°
2026-05-06 19:59 -31.71862 145.34748 41236 ft 557 kts 131°
2026-05-06 20:00 -31.76606 145.41946 41233 ft 557 kts 131°
2026-05-06 20:00 -31.81350 145.49155 41231 ft 558 kts 131°
2026-05-06 20:01 -31.86093 145.56379 41244 ft 559 kts 131°
2026-05-06 20:01 -31.90827 145.63600 41221 ft 556 kts 131°
2026-05-06 20:02 -31.95534 145.70793 41235 ft 555 kts 131°
2026-05-06 20:02 -32.00245 145.78009 41232 ft 556 kts 131°
2026-05-06 20:03 -32.04971 145.85259 41236 ft 558 kts 131°
2026-05-06 20:03 -32.09699 145.92527 41236 ft 558 kts 131°
2026-05-06 20:04 -32.14412 145.99786 41224 ft 557 kts 131°
2026-05-06 20:04 -32.19123 146.07056 41226 ft 557 kts 131°
2026-05-06 20:05 -32.23798 146.14283 41219 ft 558 kts 131°
2026-05-06 20:05 -32.28535 146.21621 41224 ft 558 kts 131°
2026-05-06 20:06 -32.33207 146.28873 41219 ft 556 kts 131°
2026-05-06 20:06 -32.37893 146.36158 41212 ft 557 kts 131°
2026-05-06 20:07 -32.42580 146.43461 41218 ft 558 kts 131°
2026-05-06 20:07 -32.47284 146.50805 41219 ft 558 kts 131°
2026-05-06 20:08 -32.51979 146.58147 41217 ft 558 kts 131°
2026-05-06 20:08 -32.56671 146.65500 41211 ft 559 kts 131°
2026-05-06 20:09 -32.61330 146.72816 41210 ft 559 kts 131°
2026-05-06 20:09 -32.66041 146.80227 41206 ft 559 kts 130°
2026-05-06 20:10 -32.70726 146.87612 41223 ft 560 kts 130°
2026-05-06 20:10 -32.75402 146.95000 41191 ft 558 kts 130°
2026-05-06 20:11 -32.80030 147.02323 41191 ft 557 kts 130°
2026-05-06 20:11 -32.84675 147.09689 41185 ft 557 kts 130°
2026-05-06 20:12 -32.89313 147.17057 41182 ft 557 kts 130°
2026-05-06 20:12 -32.93182 147.23217 41183 ft 558 kts 130°
2026-05-06 20:13 -32.97845 147.30653 41177 ft 560 kts 130°
2026-05-06 20:13 -33.02496 147.38085 41187 ft 560 kts 130°
2026-05-06 20:14 -33.07149 147.45536 41182 ft 559 kts 130°
2026-05-06 20:14 -33.11785 147.52973 41173 ft 557 kts 130°
2026-05-06 20:15 -33.16393 147.60381 41166 ft 556 kts 130°
2026-05-06 20:15 -33.20999 147.67797 41159 ft 556 kts 130°
2026-05-06 20:16 -33.25582 147.75195 41159 ft 558 kts 130°
2026-05-06 20:16 -33.30197 147.82658 41154 ft 559 kts 130°
2026-05-06 20:17 -33.34821 147.90152 41164 ft 559 kts 130°
2026-05-06 20:17 -33.39828 147.97180 41156 ft 553 kts 137°
2026-05-06 20:18 -33.45063 148.03935 41150 ft 553 kts 136°
2026-05-06 20:18 -33.50270 148.10718 41152 ft 553 kts 137°
2026-05-06 20:19 -33.55483 148.17488 41155 ft 552 kts 137°
2026-05-06 20:19 -33.60668 148.24257 41149 ft 550 kts 136°
2026-05-06 20:20 -33.65846 148.31015 41146 ft 550 kts 136°
2026-05-06 20:20 -33.71017 148.37785 41136 ft 549 kts 136°
2026-05-06 20:21 -33.76178 148.44550 41139 ft 550 kts 136°
2026-05-06 20:21 -33.81346 148.51340 41137 ft 551 kts 136°
2026-05-06 20:22 -33.86530 148.58165 41141 ft 552 kts 136°
2026-05-06 20:22 -33.91705 148.64989 41124 ft 551 kts 136°
2026-05-06 20:23 -33.96828 148.71759 41119 ft 549 kts 136°
2026-05-06 20:23 -34.01970 148.78566 41112 ft 548 kts 136°
2026-05-06 20:24 -34.07092 148.85362 41105 ft 548 kts 136°
2026-05-06 20:24 -34.12212 148.92166 40474 ft 548 kts 136°
2026-05-06 20:25 -34.14783 148.95588 39671 ft 552 kts 136°
2026-05-06 20:25 -34.17368 148.99031 38978 ft 554 kts 136°
2026-05-06 20:25 -34.19946 149.02470 38439 ft 550 kts 136°
2026-05-06 20:25 -34.22507 149.05893 37892 ft 546 kts 136°
2026-05-06 20:26 -34.25052 149.09293 37331 ft 542 kts 136°
2026-05-06 20:26 -34.27577 149.12668 36766 ft 539 kts 136°
2026-05-06 20:26 -34.30081 149.16021 36269 ft 536 kts 136°
2026-05-06 20:26 -34.32571 149.19359 35751 ft 533 kts 136°
2026-05-06 20:27 -34.35048 149.22681 35240 ft 530 kts 136°
2026-05-06 20:27 -34.37522 149.26001 34751 ft 527 kts 136°
2026-05-06 20:27 -34.39940 149.29328 34229 ft 526 kts 130°
2026-05-06 20:27 -34.41916 149.33063 33698 ft 527 kts 116°
2026-05-06 20:28 -34.43276 149.37089 33222 ft 521 kts 104°
2026-05-06 20:28 -34.44033 149.41346 32735 ft 512 kts 95°
2026-05-06 20:28 -34.44559 149.45597 32235 ft 508 kts 95°
2026-05-06 20:28 -34.45060 149.49808 31795 ft 502 kts 94°
2026-05-06 20:29 -34.45545 149.53956 31124 ft 488 kts 94°
2026-05-06 20:29 -34.46030 149.58018 29722 ft 484 kts 94°
2026-05-06 20:29 -34.46509 149.61997 28464 ft 471 kts 94°
2026-05-06 20:29 -34.46970 149.65888 27380 ft 466 kts 94°
2026-05-06 20:30 -34.47419 149.69721 27149 ft 455 kts 94°
2026-05-06 20:30 -34.48308 149.77266 26117 ft 449 kts 95°
2026-05-06 20:30 -34.48746 149.80999 25621 ft 446 kts 95°
2026-05-06 20:31 -34.49178 149.84702 25151 ft 442 kts 95°
2026-05-06 20:31 -34.49597 149.88324 24606 ft 437 kts 93°
2026-05-06 20:31 -34.49627 149.91950 24133 ft 422 kts 78°
2026-05-06 20:31 -34.49046 149.95362 23577 ft 408 kts 64°
2026-05-06 20:32 -34.47923 149.98449 22917 ft 395 kts 54°
2026-05-06 20:32 -34.46636 150.01385 22225 ft 393 kts 54°
2026-05-06 20:32 -34.45353 150.04279 21752 ft 385 kts 54°
2026-05-06 20:32 -34.44080 150.07133 21297 ft 384 kts 54°
2026-05-06 20:33 -34.42809 150.09986 20872 ft 385 kts 54°
2026-05-06 20:33 -34.41549 150.12835 20421 ft 382 kts 54°
2026-05-06 20:33 -34.40299 150.15658 19982 ft 377 kts 54°
2026-05-06 20:33 -34.39070 150.18412 19542 ft 375 kts 54°
2026-05-06 20:34 -34.37834 150.21184 19123 ft 374 kts 55°
2026-05-06 20:34 -34.36602 150.23949 18697 ft 373 kts 55°
2026-05-06 20:34 -34.35377 150.26699 18257 ft 370 kts 55°
2026-05-06 20:34 -34.34164 150.29421 17776 ft 365 kts 55°
2026-05-06 20:35 -34.32963 150.32109 17371 ft 363 kts 56°
2026-05-06 20:35 -34.31757 150.34797 16971 ft 364 kts 56°
2026-05-06 20:35 -34.30556 150.37486 16551 ft 361 kts 56°
2026-05-06 20:35 -34.29374 150.40136 16143 ft 357 kts 56°
2026-05-06 20:36 -34.28189 150.42777 15738 ft 358 kts 56°
2026-05-06 20:36 -34.27000 150.45424 15321 ft 357 kts 56°
2026-05-06 20:36 -34.25834 150.48043 14917 ft 351 kts 56°
2026-05-06 20:36 -34.24687 150.50616 14517 ft 345 kts 56°
2026-05-06 20:37 -34.23552 150.53149 14096 ft 342 kts 56°
2026-05-06 20:37 -34.22419 150.55671 13692 ft 342 kts 57°
2026-05-06 20:37 -34.21287 150.58198 13280 ft 341 kts 57°
2026-05-06 20:37 -34.20158 150.60717 12878 ft 340 kts 57°
2026-05-06 20:38 -34.19058 150.63171 12485 ft 333 kts 57°
2026-05-06 20:38 -34.17953 150.65630 12104 ft 333 kts 57°
2026-05-06 20:38 -34.16841 150.68098 11670 ft 333 kts 57°
2026-05-06 20:38 -34.15735 150.70556 11234 ft 333 kts 57°
2026-05-06 20:39 -34.14636 150.73002 10775 ft 330 kts 57°
2026-05-06 20:39 -34.13544 150.75426 10334 ft 325 kts 57°
2026-05-06 20:39 -34.12472 150.77803 9912 ft 319 kts 57°
2026-05-06 20:39 -34.11419 150.80138 9467 ft 313 kts 57°
2026-05-06 20:40 -34.10398 150.82398 9081 ft 306 kts 57°
2026-05-06 20:40 -34.09392 150.84635 8958 ft 293 kts 57°
2026-05-06 20:40 -34.08439 150.86755 8945 ft 292 kts 57°
2026-05-06 20:40 -34.07464 150.88915 8914 ft 297 kts 57°
2026-05-06 20:41 -34.06461 150.91132 8860 ft 305 kts 57°
2026-05-06 20:41 -34.05447 150.93388 8597 ft 305 kts 57°
2026-05-06 20:41 -34.04435 150.95639 8338 ft 305 kts 58°
2026-05-06 20:41 -34.03426 150.97872 8064 ft 303 kts 58°
2026-05-06 20:42 -34.02420 151.00101 7795 ft 301 kts 58°
2026-05-06 20:42 -34.01425 151.02319 7526 ft 300 kts 58°
2026-05-06 20:42 -34.00453 151.04535 7256 ft 299 kts 59°
2026-05-06 20:42 -33.99498 151.06713 6999 ft 293 kts 60°
2026-05-06 20:43 -33.98528 151.08903 6738 ft 293 kts 60°
2026-05-06 20:43 -33.97582 151.11033 6482 ft 292 kts 60°
2026-05-06 20:43 -33.96625 151.13195 6219 ft 290 kts 60°
2026-05-06 20:43 -33.95695 151.15298 5954 ft 279 kts 60°
2026-05-06 20:44 -33.94798 151.17314 5729 ft 265 kts 60°
2026-05-06 20:44 -33.93944 151.19212 5519 ft 254 kts 60°
2026-05-06 20:44 -33.93100 151.21076 5295 ft 252 kts 60°
2026-05-06 20:44 -33.92256 151.22927 5068 ft 252 kts 60°
2026-05-06 20:45 -33.91411 151.24771 4846 ft 251 kts 60°
2026-05-06 20:45 -33.90549 151.26599 4613 ft 250 kts 55°
2026-05-06 20:45 -33.89287 151.27964 4300 ft 241 kts 18°
2026-05-06 20:45 -33.87680 151.28288 4037 ft 232 kts 355°
2026-05-06 20:46 -33.86084 151.28319 3818 ft 226 kts 353°
2026-05-06 20:46 -33.84487 151.28322 3602 ft 232 kts 353°
2026-05-06 20:46 -33.82901 151.28253 3389 ft 227 kts 347°
2026-05-06 20:46 -33.81337 151.28101 3161 ft 225 kts 347°
2026-05-06 20:47 -33.79797 151.27944 2934 ft 217 kts 347°
2026-05-06 20:47 -33.78318 151.27788 2713 ft 210 kts 347°
2026-05-06 20:47 -33.76886 151.27629 2490 ft 203 kts 347°
2026-05-06 20:47 -33.75498 151.27466 2237 ft 198 kts 347°
2026-05-06 20:48 -33.74160 151.27294 2253 ft 194 kts 347°
2026-05-06 20:48 -33.72813 151.27112 2257 ft 194 kts 347°
2026-05-06 20:48 -33.71459 151.26923 2262 ft 197 kts 347°
2026-05-06 20:48 -33.70176 151.26536 2226 ft 186 kts 321°
2026-05-06 20:49 -33.69563 151.25308 2236 ft 172 kts 272°
2026-05-06 20:49 -33.69857 151.23923 2408 ft 174 kts 249°
2026-05-06 20:49 -33.70247 151.22452 3225 ft 198 kts 253°
2026-05-06 20:49 -33.70628 151.20900 3266 ft 192 kts 253°
2026-05-06 20:50 -33.70984 151.19444 3149 ft 176 kts 253°
2026-05-06 20:50 -33.71315 151.18093 3037 ft 163 kts 253°
2026-05-06 20:50 -33.71631 151.16823 3032 ft 158 kts 253°
2026-05-06 20:50 -33.71945 151.15565 3036 ft 156 kts 253°
2026-05-06 20:51 -33.72260 151.14307 3031 ft 157 kts 253°
2026-05-06 20:51 -33.72577 151.13049 3028 ft 158 kts 253°
2026-05-06 20:51 -33.72991 151.11839 2994 ft 159 kts 235°
2026-05-06 20:51 -33.74040 151.11353 3012 ft 175 kts 190°
2026-05-06 20:52 -33.75270 151.11378 3026 ft 177 kts 187°
2026-05-06 20:52 -33.76482 151.11898 2998 ft 196 kts 157°
2026-05-06 20:52 -33.77617 151.12794 3027 ft 195 kts 156°
2026-05-06 20:52 -33.78825 151.13515 2853 ft 189 kts 172°
2026-05-06 20:53 -33.80074 151.13879 2607 ft 183 kts 175°
2026-05-06 20:53 -33.81311 151.14211 2369 ft 182 kts 176°
2026-05-06 20:53 -33.82563 151.14527 2122 ft 186 kts 175°
2026-05-06 20:53 -33.83830 151.14846 1869 ft 186 kts 174°
2026-05-06 20:54 -33.85100 151.15167 1622 ft 187 kts 173°
2026-05-06 20:54 -33.86309 151.15479 1357 ft 169 kts 173°
2026-05-06 20:54 -33.87438 151.15768 1133 ft 166 kts 173°
2026-05-06 20:54 -33.88555 151.16056 908 ft 159 kts 172°
2026-05-06 20:55 -33.89620 151.16326 705 ft 157 kts 173°
2026-05-06 20:55 -33.90691 151.16592 478 ft 157 kts 172°
2026-05-06 20:55 -33.91756 151.16852 289 ft 156 kts 171°
2026-05-06 20:55 -33.92822 151.17133 108 ft 156 kts 171°
2026-05-06 20:56 -33.93829 151.17393 25 ft 128 kts 168°
2026-05-06 20:56 -33.94462 151.17552 29 ft 49 kts 168°